^^

..:: Storico WU ::..




Lo storico viene creato da WUnderground con i dati che la stazione Meteomincio invia al loro server. L' aggiornamento viene fatto ogni 5 minuti circa, tuttavia possono esserci intervalli pił ampi a causa di errori, interruzioni di servizio o problemi nell' invio tramite FTP.


Storico stazione MeteoMincio
Giorno Sommario per Dicembre 04, 2022 Unità:  Inglese    Metrico   Entrambi
Giorno Settimana Mese Anno
  Max: Min: Media:
Temperatura: 50 °F 46.4 °F 48 °F
Dew Point: 48.2 °F 44.6 °F 46.4 °F
Umidità: 96% 90% 95%
Velocità vento: 16.2mph 0mph 6mph
Raffica: 23mph - -
Direzione- - South
Pressione: 30.1 in 29.8 in -
Precipitazioni: 0.9 in    
 
 
Tabulato Dati per Dicembre 04, 2022
Ora Temperatura Dew Point Pressione Direzione Velocità vento Raffica Umidità Intensità pioggia (oraria) Info solare Situazione
00:04 48.2 °F 46.4 °F 30 in ENE 10.6 mph 13 mph 94% 0 in 0.00 W/m2 unknown
00:09 48.2 °F 46.4 °F 30 in ENE 10.6 mph 13 mph 94% 0 in 0.00 W/m2 unknown
00:14 48.2 °F 46.4 °F 30 in ENE 8.1 mph 13 mph 93% 0 in 0.00 W/m2 unknown
00:19 48.2 °F 46.4 °F 30 in ENE 8.7 mph 11.8 mph 93% 0 in 0.00 W/m2 unknown
00:24 48.2 °F 46.4 °F 30 in ENE 10.6 mph 11.8 mph 93% 0 in 0.00 W/m2 unknown
00:29 48.2 °F 46.4 °F 30 in ENE 9.9 mph 14.3 mph 93% 0 in 0.00 W/m2 unknown
00:34 48.2 °F 46.4 °F 30 in ENE 9.9 mph 14.3 mph 93% 0 in 0.00 W/m2 unknown
00:39 48.2 °F 46.4 °F 30 in East 9.3 mph 14.3 mph 94% 0 in 0.00 W/m2 unknown
00:44 48.2 °F 46.4 °F 30 in ENE 11.2 mph 14.9 mph 94% 0 in 0.00 W/m2 unknown
00:49 48.2 °F 46.4 °F 30 in ENE 10.6 mph 16.2 mph 93% 0 in 0.00 W/m2 unknown
00:54 48.2 °F 46.4 °F 30 in ENE 11.8 mph 18.6 mph 93% 0 in 0.00 W/m2 unknown
00:59 48.2 °F 46.4 °F 30 in ENE 11.8 mph 18 mph 93% 0 in 0.00 W/m2 unknown
01:04 48.2 °F 46.4 °F 29.9 in ENE 11.8 mph 16.2 mph 93% 0 in 0.00 W/m2 unknown
01:09 48.2 °F 46.4 °F 29.9 in ENE 12.4 mph 17.4 mph 93% 0 in 0.00 W/m2 unknown
01:14 48.2 °F 46.4 °F 29.9 in East 11.8 mph 17.4 mph 93% 0 in 0.00 W/m2 unknown
01:19 48.2 °F 46.4 °F 29.9 in ENE 10.6 mph 16.8 mph 93% 0 in 0.00 W/m2 unknown
01:24 48.2 °F 46.4 °F 29.9 in ENE 12.4 mph 14.9 mph 93% 0 in 0.00 W/m2 unknown
01:29 48.2 °F 46.4 °F 29.9 in ENE 11.8 mph 14.9 mph 93% 0 in 0.00 W/m2 unknown
01:34 48.2 °F 46.4 °F 29.9 in ENE 10.6 mph 14.3 mph 93% 0 in 0.00 W/m2 unknown
01:39 50 °F 48.2 °F 29.9 in ENE 11.2 mph 17.4 mph 93% 0 in 0.00 W/m2 unknown
01:44 50 °F 48.2 °F 29.9 in ENE 9.9 mph 16.8 mph 93% 0 in 0.00 W/m2 unknown
01:49 50 °F 48.2 °F 29.9 in ENE 9.9 mph 14.9 mph 93% 0 in 0.00 W/m2 unknown
01:54 50 °F 48.2 °F 29.9 in ENE 11.2 mph 16.2 mph 93% 0 in 0.00 W/m2 unknown
01:59 50 °F 48.2 °F 29.9 in ENE 11.2 mph 16.2 mph 93% 0 in 0.00 W/m2 unknown
02:04 50 °F 46.4 °F 29.9 in ENE 13 mph 17.4 mph 92% 0 in 0.00 W/m2 unknown
02:09 50 °F 46.4 °F 29.9 in ENE 13 mph 16.8 mph 92% 0 in 0.00 W/m2 unknown
02:14 50 °F 46.4 °F 29.9 in ENE 12.4 mph 17.4 mph 92% 0 in 0.00 W/m2 unknown
02:19 50 °F 48.2 °F 29.9 in ENE 11.8 mph 16.8 mph 92% 0 in 0.00 W/m2 unknown
02:24 50 °F 48.2 °F 29.9 in ENE 13.7 mph 18 mph 92% 0 in 0.00 W/m2 unknown
02:29 50 °F 48.2 °F 29.9 in ENE 14.3 mph 19.9 mph 92% 0 in 0.00 W/m2 unknown
02:34 50 °F 48.2 °F 29.9 in ENE 12.4 mph 19.9 mph 92% 0 in 0.00 W/m2 unknown
02:39 50 °F 48.2 °F 29.9 in ENE 14.3 mph 21.1 mph 92% 0 in 0.00 W/m2 unknown
02:44 50 °F 48.2 °F 29.9 in ENE 14.9 mph 21.1 mph 92% 0 in 0.00 W/m2 unknown
02:49 50 °F 48.2 °F 29.9 in ENE 14.3 mph 21.1 mph 91% 0 in 0.00 W/m2 unknown
02:54 50 °F 48.2 °F 29.9 in ENE 13.7 mph 19.9 mph 92% 0 in 0.00 W/m2 unknown
02:59 50 °F 48.2 °F 29.9 in ENE 11.2 mph 18 mph 91% 0 in 0.00 W/m2 unknown
03:04 50 °F 48.2 °F 29.9 in ENE 11.8 mph 17.4 mph 91% 0 in 0.00 W/m2 unknown
03:09 50 °F 48.2 °F 29.9 in ENE 11.2 mph 16.8 mph 91% 0 in 0.00 W/m2 unknown
03:14 50 °F 48.2 °F 29.9 in ENE 11.8 mph 17.4 mph 91% 0 in 0.00 W/m2 unknown
03:19 50 °F 48.2 °F 29.9 in ENE 12.4 mph 19.9 mph 91% 0 in 0.00 W/m2 unknown
03:24 50 °F 48.2 °F 29.9 in ENE 12.4 mph 19.9 mph 91% 0 in 0.00 W/m2 unknown
03:29 50 °F 48.2 °F 29.9 in ENE 12.4 mph 14.9 mph 91% 0 in 0.00 W/m2 unknown
03:34 50 °F 48.2 °F 29.9 in ENE 13.7 mph 17.4 mph 91% 0 in 0.00 W/m2 unknown
03:39 50 °F 48.2 °F 29.9 in ENE 10.6 mph 16.8 mph 91% 0 in 0.00 W/m2 unknown
03:44 50 °F 48.2 °F 29.9 in ENE 13 mph 18.6 mph 90% 0 in 0.00 W/m2 unknown
03:49 50 °F 48.2 °F 29.9 in ENE 12.4 mph 18 mph 90% 0 in 0.00 W/m2 unknown
03:54 50 °F 48.2 °F 29.9 in NE 12.4 mph 16.2 mph 90% 0 in 0.00 W/m2 unknown
03:59 50 °F 48.2 °F 29.9 in ENE 13.7 mph 16.2 mph 90% 0.01 in 0.00 W/m2 unknown
04:04 50 °F 48.2 °F 29.9 in ENE 14.3 mph 21.7 mph 90% 0.01 in 0.00 W/m2 unknown
04:09 50 °F 48.2 °F 29.9 in ENE 15.5 mph 21.7 mph 90% 0.01 in 0.00 W/m2 unknown
04:14 50 °F 48.2 °F 29.9 in ENE 14.9 mph 21.7 mph 90% 0.01 in 0.00 W/m2 unknown
04:19 50 °F 48.2 °F 29.9 in ENE 14.3 mph 21.1 mph 90% 0.01 in 0.00 W/m2 unknown
04:24 50 °F 48.2 °F 29.9 in ENE 16.2 mph 23 mph 90% 0.01 in 0.00 W/m2 unknown
04:29 50 °F 48.2 °F 29.9 in NE 14.9 mph 23 mph 90% 0.01 in 0.00 W/m2 unknown
04:34 50 °F 48.2 °F 29.9 in ENE 14.3 mph 23 mph 90% 0.01 in 0.00 W/m2 unknown
04:39 50 °F 48.2 °F 29.9 in NE 14.9 mph 18.6 mph 90% 0.01 in 0.00 W/m2 unknown
04:44 50 °F 48.2 °F 29.9 in ENE 14.9 mph 19.9 mph 90% 0.01 in 0.00 W/m2 unknown
04:49 50 °F 48.2 °F 29.9 in ENE 14.3 mph 19.9 mph 90% 0.01 in 0.00 W/m2 unknown
04:54 50 °F 48.2 °F 29.8 in NE 14.3 mph 21.1 mph 91% 0.02 in 0.00 W/m2 unknown
04:59 50 °F 48.2 °F 29.8 in ENE 14.3 mph 21.1 mph 91% 0.03 in 0.00 W/m2 unknown
05:04 50 °F 48.2 °F 29.9 in ENE 13 mph 19.9 mph 92% 0.04 in 0.00 W/m2 unknown
05:09 50 °F 48.2 °F 29.9 in ENE 11.2 mph 16.2 mph 92% 0.04 in 0.00 W/m2 unknown
05:14 50 °F 48.2 °F 29.9 in ENE 14.3 mph 21.7 mph 92% 0.04 in 0.00 W/m2 unknown
05:19 50 °F 48.2 °F 29.9 in ENE 14.3 mph 21.7 mph 92% 0.04 in 0.00 W/m2 unknown
05:24 50 °F 48.2 °F 29.9 in ENE 11.8 mph 19.9 mph 92% 0.06 in 0.00 W/m2 unknown
05:29 50 °F 48.2 °F 29.9 in NE 11.2 mph 16.2 mph 93% 0.07 in 0.00 W/m2 unknown
05:34 50 °F 48.2 °F 29.9 in NE 9.9 mph 16.2 mph 93% 0.07 in 0.00 W/m2 unknown
05:39 50 °F 48.2 °F 29.9 in NE 8.1 mph 14.3 mph 93% 0.08 in 0.00 W/m2 unknown
05:44 50 °F 48.2 °F 29.9 in ENE 8.7 mph 11.8 mph 93% 0.08 in 0.00 W/m2 unknown
05:49 50 °F 48.2 °F 29.9 in NNE 5 mph 11.8 mph 93% 0.09 in 0.00 W/m2 unknown
05:54 50 °F 48.2 °F 29.9 in NNE 4.3 mph 6.8 mph 93% 0.11 in 0.00 W/m2 unknown
05:59 50 °F 48.2 °F 29.9 in ENE 3.7 mph 6.8 mph 93% 0.12 in 0.00 W/m2 unknown
06:04 50 °F 48.2 °F 29.9 in NE 5 mph 8.7 mph 94% 0.11 in 0.00 W/m2 unknown
06:09 50 °F 48.2 °F 29.9 in East 5.6 mph 9.3 mph 94% 0.1 in 0.00 W/m2 unknown
06:14 50 °F 48.2 °F 29.9 in ESE 2.5 mph 8.7 mph 94% 0.12 in 0.00 W/m2 unknown
06:19 50 °F 48.2 °F 29.9 in South 3.1 mph 6.2 mph 94% 0.18 in 0.00 W/m2 unknown
06:24 50 °F 48.2 °F 29.9 in WSW 7.5 mph 10.6 mph 94% 0.24 in 0.00 W/m2 unknown
06:29 48.2 °F 48.2 °F 29.9 in WSW 6.2 mph 9.9 mph 94% 0.28 in 0.00 W/m2 unknown
06:34 48.2 °F 46.4 °F 29.9 in WSW 7.5 mph 11.2 mph 94% 0.28 in 0.00 W/m2 unknown
06:39 48.2 °F 46.4 °F 29.9 in West 8.1 mph 11.8 mph 94% 0.29 in 0.00 W/m2 unknown
06:44 48.2 °F 46.4 °F 29.9 in West 6.8 mph 10.6 mph 94% 0.31 in 0.00 W/m2 unknown
06:49 48.2 °F 46.4 °F 29.9 in SW 6.2 mph 9.9 mph 94% 0.33 in 0.00 W/m2 unknown
06:54 46.4 °F 46.4 °F 29.9 in SW 5 mph 8.1 mph 94% 0.35 in 0.00 W/m2 unknown
06:59 46.4 °F 44.6 °F 29.9 in West 6.2 mph 8.1 mph 94% 0.35 in 0.00 W/m2 unknown
07:04 46.4 °F 44.6 °F 29.9 in WSW 8.1 mph 11.8 mph 95% 0.33 in 0.00 W/m2 unknown
07:09 46.4 °F 44.6 °F 29.9 in West 8.1 mph 11.8 mph 95% 0.33 in 0.00 W/m2 unknown
07:14 46.4 °F 44.6 °F 29.9 in West 6.2 mph 11.8 mph 95% 0.35 in 0.00 W/m2 unknown
07:19 46.4 °F 44.6 °F 29.9 in West 6.8 mph 9.3 mph 95% 0.35 in 0.00 W/m2 unknown
07:24 46.4 °F 44.6 °F 29.9 in WNW 6.2 mph 8.7 mph 95% 0.35 in 0.00 W/m2 unknown
07:29 46.4 °F 44.6 °F 29.9 in WNW 5.6 mph 9.3 mph 95% 0.28 in 0.00 W/m2 unknown
07:34 46.4 °F 44.6 °F 29.9 in WNW 6.8 mph 9.3 mph 95% 0.24 in 0.00 W/m2 unknown
07:39 46.4 °F 44.6 °F 29.9 in NNW 5 mph 8.7 mph 95% 0.23 in 0.00 W/m2 unknown
07:44 46.4 °F 44.6 °F 29.9 in NW 3.1 mph 5 mph 95% 0.22 in 0.00 W/m2 unknown
07:49 46.4 °F 44.6 °F 29.9 in NNW 5 mph 6.2 mph 95% 0.2 in 0.00 W/m2 unknown
07:54 46.4 °F 44.6 °F 29.9 in NW 5 mph 6.2 mph 95% 0.18 in 0.00 W/m2 unknown
07:59 46.4 °F 46.4 °F 29.9 in NW 5.6 mph 6.8 mph 95% 0.17 in 0.00 W/m2 unknown
08:04 46.4 °F 44.6 °F 29.9 in NW 8.7 mph 11.8 mph 95% 0.17 in 0.00 W/m2 unknown
08:09 46.4 °F 44.6 °F 29.9 in WNW 8.1 mph 11.8 mph 95% 0.17 in 0.00 W/m2 unknown
08:14 46.4 °F 44.6 °F 29.9 in West 5.6 mph 8.1 mph 95% 0.17 in 0.00 W/m2 unknown
08:19 46.4 °F 44.6 °F 29.9 in WNW 5.6 mph 6.8 mph 95% 0.17 in 0.00 W/m2 unknown
08:24 46.4 °F 44.6 °F 29.9 in WNW 5.6 mph 6.8 mph 95% 0.16 in 0.00 W/m2 unknown
08:29 46.4 °F 46.4 °F 29.9 in WNW 5.6 mph 8.1 mph 96% 0.14 in 0.00 W/m2 unknown
08:34 46.4 °F 46.4 °F 29.9 in WNW 6.2 mph 8.7 mph 96% 0.14 in 5.00 W/m2 unknown
08:39 46.4 °F 46.4 °F 29.9 in WNW 6.8 mph 11.8 mph 96% 0.12 in 0.00 W/m2 unknown
08:44 46.4 °F 44.6 °F 29.9 in West 7.5 mph 11.8 mph 96% 0.11 in 0.00 W/m2 unknown
08:49 46.4 °F 44.6 °F 29.9 in NW 1.2 mph 3.7 mph 96% 0.09 in 7.00 W/m2 unknown
08:54 46.4 °F 44.6 °F 29.9 in West 6.8 mph 8.1 mph 96% 0.12 in 11.00 W/m2 unknown
08:59 46.4 °F 44.6 °F 29.9 in West 6.8 mph 8.1 mph 96% 0.13 in 11.00 W/m2 unknown
09:04 46.4 °F 44.6 °F 29.9 in WSW 6.8 mph 8.7 mph 96% 0.14 in 19.00 W/m2 unknown
09:09 46.4 °F 44.6 °F 29.9 in WSW 6.8 mph 9.3 mph 95% 0.14 in 19.00 W/m2 unknown
09:14 46.4 °F 44.6 °F 29.9 in West 5 mph 8.7 mph 96% 0.14 in 18.00 W/m2 unknown
09:19 46.4 °F 44.6 °F 29.9 in NNW 6.8 mph 9.9 mph 96% 0.14 in 19.00 W/m2 unknown
09:24 46.4 °F 44.6 °F 29.9 in WNW 8.1 mph 10.6 mph 96% 0.13 in 23.00 W/m2 unknown
09:29 46.4 °F 44.6 °F 29.9 in West 6.8 mph 10.6 mph 96% 0.13 in 19.00 W/m2 unknown
09:34 46.4 °F 44.6 °F 29.9 in WNW 3.7 mph 5.6 mph 96% 0.13 in 11.00 W/m2 unknown
09:39 46.4 °F 44.6 °F 29.9 in WNW 6.2 mph 8.1 mph 96% 0.13 in 11.00 W/m2 unknown
09:44 46.4 °F 44.6 °F 29.9 in West 6.8 mph 10.6 mph 96% 0.14 in 12.00 W/m2 unknown
09:49 46.4 °F 44.6 °F 29.9 in WNW 6.2 mph 9.9 mph 96% 0.15 in 16.00 W/m2 unknown
09:54 46.4 °F 44.6 °F 29.9 in WNW 6.2 mph 8.1 mph 96% 0.14 in 14.00 W/m2 unknown
09:59 46.4 °F 44.6 °F 29.9 in WNW 5 mph 8.1 mph 96% 0.13 in 18.00 W/m2 unknown
10:04 46.4 °F 44.6 °F 29.9 in West 5 mph 6.8 mph 96% 0.13 in 18.00 W/m2 unknown
10:09 46.4 °F 44.6 °F 29.9 in WNW 3.1 mph 3.7 mph 96% 0.13 in 19.00 W/m2 unknown
10:14 46.4 °F 44.6 °F 29.9 in WNW 3.7 mph 6.2 mph 96% 0.1 in 23.00 W/m2 unknown
10:19 46.4 °F 44.6 °F 29.9 in WNW 5 mph 6.8 mph 96% 0.1 in 26.00 W/m2 unknown
10:24 46.4 °F 44.6 °F 29.9 in WNW 4.3 mph 6.2 mph 96% 0.09 in 28.00 W/m2 unknown
10:29 46.4 °F 44.6 °F 29.9 in West 5 mph 6.8 mph 96% 0.09 in 32.00 W/m2 unknown
10:34 46.4 °F 44.6 °F 29.9 in West 5 mph 6.8 mph 96% 0.08 in 30.00 W/m2 unknown
10:39 46.4 °F 44.6 °F 29.9 in West 6.2 mph 8.1 mph 96% 0.08 in 28.00 W/m2 unknown
10:44 46.4 °F 44.6 °F 29.9 in West 8.1 mph 10.6 mph 96% 0.08 in 28.00 W/m2 unknown
10:49 46.4 °F 44.6 °F 29.9 in West 8.1 mph 9.9 mph 96% 0.07 in 37.00 W/m2 unknown
10:54 46.4 °F 44.6 °F 29.9 in West 6.2 mph 8.1 mph 96% 0.06 in 53.00 W/m2 unknown
10:59 46.4 °F 44.6 °F 29.9 in West 6.2 mph 8.1 mph 96% 0.06 in 51.00 W/m2 unknown
11:04 46.4 °F 44.6 °F 29.9 in West 6.2 mph 8.1 mph 96% 0.05 in 42.00 W/m2 unknown
11:09 46.4 °F 44.6 °F 29.9 in West 6.2 mph 9.3 mph 96% 0.04 in 54.00 W/m2 unknown
11:14 46.4 °F 44.6 °F 29.9 in West 8.7 mph 10.6 mph 96% 0.03 in 58.00 W/m2 unknown
11:19 46.4 °F 44.6 °F 29.9 in West 7.5 mph 10.6 mph 96% 0.03 in 54.00 W/m2 unknown
11:24 46.4 °F 44.6 °F 29.9 in West 6.8 mph 10.6 mph 96% 0.03 in 37.00 W/m2 unknown
11:29 46.4 °F 44.6 °F 29.9 in West 6.2 mph 9.9 mph 96% 0.03 in 49.00 W/m2 unknown
11:34 46.4 °F 44.6 °F 29.9 in West 7.5 mph 10.6 mph 96% 0.03 in 65.00 W/m2 unknown
11:39 46.4 °F 44.6 °F 29.9 in WNW 6.2 mph 9.9 mph 96% 0.03 in 63.00 W/m2 unknown
11:44 46.4 °F 44.6 °F 29.9 in West 5.6 mph 8.1 mph 96% 0.02 in 53.00 W/m2 unknown
11:49 46.4 °F 44.6 °F 29.9 in West 6.2 mph 10.6 mph 96% 0.03 in 72.00 W/m2 unknown
11:54 46.4 °F 44.6 °F 29.9 in West 8.7 mph 11.8 mph 96% 0.03 in 84.00 W/m2 unknown
11:59 46.4 °F 44.6 °F 29.9 in West 6.2 mph 11.8 mph 96% 0.02 in 93.00 W/m2 unknown
12:04 46.4 °F 44.6 °F 29.9 in WNW 6.8 mph 9.3 mph 96% 0.02 in 105.00 W/m2 unknown
12:09 46.4 °F 44.6 °F 29.9 in WNW 6.2 mph 9.3 mph 96% 0.02 in 105.00 W/m2 unknown
12:14 46.4 °F 44.6 °F 29.9 in WNW 6.8 mph 9.9 mph 96% 0.02 in 114.00 W/m2 unknown
12:19 46.4 °F 44.6 °F 29.9 in WNW 9.3 mph 10.6 mph 96% 0.02 in 116.00 W/m2 unknown
12:24 46.4 °F 46.4 °F 29.9 in West 8.1 mph 9.9 mph 96% 0.02 in 107.00 W/m2 unknown
12:29 46.4 °F 46.4 °F 29.9 in West 6.2 mph 8.7 mph 96% 0.01 in 93.00 W/m2 unknown
12:34 46.4 °F 46.4 °F 29.9 in WNW 6.2 mph 8.1 mph 96% 0.01 in 98.00 W/m2 unknown
12:39 46.4 °F 46.4 °F 29.9 in WNW 8.1 mph 11.2 mph 96% 0.01 in 100.00 W/m2 unknown
12:44 46.4 °F 46.4 °F 29.9 in WNW 8.1 mph 11.8 mph 96% 0.01 in 109.00 W/m2 unknown
12:49 46.4 °F 46.4 °F 29.9 in WNW 6.8 mph 11.8 mph 96% 0.01 in 109.00 W/m2 unknown
12:54 46.4 °F 46.4 °F 29.9 in WNW 7.5 mph 9.3 mph 96% 0 in 86.00 W/m2 unknown
12:59 46.4 °F 46.4 °F 29.9 in WNW 6.2 mph 8.7 mph 96% 0 in 72.00 W/m2 unknown
13:04 46.4 °F 46.4 °F 29.9 in WNW 6.2 mph 8.1 mph 96% 0 in 69.00 W/m2 unknown
13:09 46.4 °F 46.4 °F 29.9 in WNW 5.6 mph 8.1 mph 96% 0 in 95.00 W/m2 unknown
13:14 48.2 °F 46.4 °F 29.9 in NW 5.6 mph 6.8 mph 96% 0 in 121.00 W/m2 unknown
13:19 48.2 °F 46.4 °F 29.9 in WNW 4.3 mph 6.8 mph 96% 0 in 107.00 W/m2 unknown
13:24 48.2 °F 46.4 °F 29.9 in NW 2.5 mph 6.2 mph 96% 0 in 74.00 W/m2 unknown
13:29 48.2 °F 46.4 °F 29.9 in NW 5 mph 6.8 mph 96% 0 in 100.00 W/m2 unknown
13:34 48.2 °F 46.4 °F 29.9 in NW 5 mph 6.8 mph 96% 0 in 151.00 W/m2 unknown
13:39 48.2 °F 46.4 °F 29.9 in NNW 4.3 mph 6.2 mph 96% 0 in 120.00 W/m2 unknown
13:44 48.2 °F 46.4 °F 29.9 in NW 3.7 mph 5 mph 95% 0 in 100.00 W/m2 unknown
13:49 48.2 °F 46.4 °F 29.9 in WNW 3.1 mph 5 mph 95% 0 in 74.00 W/m2 unknown
13:54 48.2 °F 46.4 °F 29.9 in WNW 3.7 mph 5 mph 95% 0 in 46.00 W/m2 unknown
13:59 48.2 °F 46.4 °F 29.9 in WNW 4.3 mph 5 mph 95% 0 in 79.00 W/m2 unknown
14:04 48.2 °F 46.4 °F 29.9 in NW 4.3 mph 5 mph 95% 0 in 84.00 W/m2 unknown
14:09 48.2 °F 46.4 °F 29.9 in NW 3.7 mph 5 mph 95% 0 in 56.00 W/m2 unknown
14:14 48.2 °F 46.4 °F 29.9 in WNW 4.3 mph 6.2 mph 95% 0 in 42.00 W/m2 unknown
14:19 48.2 °F 46.4 °F 29.9 in WNW 4.3 mph 6.2 mph 95% 0 in 44.00 W/m2 unknown
14:24 48.2 °F 46.4 °F 29.9 in WNW 3.7 mph 5 mph 95% 0 in 49.00 W/m2 unknown
14:29 48.2 °F 46.4 °F 30 in NW 3.7 mph 5 mph 95% 0 in 49.00 W/m2 unknown
14:34 48.2 °F 46.4 °F 30 in WNW 3.1 mph 5 mph 95% 0 in 40.00 W/m2 unknown
14:39 48.2 °F 46.4 °F 30 in WNW 1.9 mph 3.7 mph 95% 0 in 37.00 W/m2 unknown
14:44 48.2 °F 46.4 °F 30 in NW 1.9 mph 3.7 mph 95% 0 in 42.00 W/m2 unknown
14:49 48.2 °F 46.4 °F 30 in WNW 3.1 mph 3.7 mph 95% 0 in 42.00 W/m2 unknown
14:54 48.2 °F 46.4 °F 30 in WNW 3.1 mph 3.7 mph 95% 0 in 35.00 W/m2 unknown
14:59 48.2 °F 46.4 °F 30 in West 2.5 mph 3.7 mph 95% 0 in 33.00 W/m2 unknown
15:04 48.2 °F 46.4 °F 30 in West 2.5 mph 3.7 mph 95% 0 in 21.00 W/m2 unknown
15:09 48.2 °F 46.4 °F 30 in WNW 2.5 mph 3.7 mph 95% 0 in 16.00 W/m2 unknown
15:14 48.2 °F 46.4 °F 30 in WNW 2.5 mph 3.7 mph 95% 0 in 30.00 W/m2 unknown
15:19 48.2 °F 46.4 °F 30 in NW 2.5 mph 3.7 mph 95% 0 in 35.00 W/m2 unknown
15:24 48.2 °F 46.4 °F 30 in WNW 3.1 mph 5 mph 95% 0 in 35.00 W/m2 unknown
15:29 48.2 °F 46.4 °F 30 in WNW 3.1 mph 5 mph 95% 0 in 33.00 W/m2 unknown
15:34 48.2 °F 46.4 °F 30 in West 3.1 mph 3.7 mph 95% 0 in 33.00 W/m2 unknown
15:39 48.2 °F 46.4 °F 30 in West 2.5 mph 3.7 mph 95% 0 in 30.00 W/m2 unknown
15:44 48.2 °F 46.4 °F 30 in WNW 1.9 mph 3.7 mph 95% 0 in 37.00 W/m2 unknown
15:49 48.2 °F 46.4 °F 30 in WNW 1.2 mph 3.1 mph 95% 0 in 37.00 W/m2 unknown
15:54 48.2 °F 46.4 °F 30 in WNW 0.6 mph 2.5 mph 95% 0 in 23.00 W/m2 unknown
15:59 48.2 °F 46.4 °F 30 in WNW 1.2 mph 2.5 mph 95% 0 in 11.00 W/m2 unknown
16:04 48.2 °F 46.4 °F 30 in Calm   1.9 mph 95% 0 in 12.00 W/m2 unknown
16:09 48.2 °F 46.4 °F 30 in Calm     95% 0 in 19.00 W/m2 unknown
16:14 48.2 °F 46.4 °F 30 in Calm     95% 0 in 18.00 W/m2 unknown
16:19 48.2 °F 46.4 °F 30 in Calm     95% 0 in 11.00 W/m2 unknown
16:24 48.2 °F 46.4 °F 30 in Calm     95% 0 in 5.00 W/m2 unknown
16:29 48.2 °F 46.4 °F 30 in Calm     95% 0 in 0.00 W/m2 unknown
16:34 48.2 °F 46.4 °F 30 in Calm     95% 0 in 0.00 W/m2 unknown
16:39 48.2 °F 46.4 °F 30 in Calm     95% 0 in 0.00 W/m2 unknown
16:44 48.2 °F 46.4 °F 30 in Calm     95% 0 in 0.00 W/m2 unknown
16:49 48.2 °F 46.4 °F 30 in Calm     95% 0 in 0.00 W/m2 unknown
16:54 48.2 °F 46.4 °F 30 in Calm     95% 0 in 0.00 W/m2 unknown
16:59 48.2 °F 46.4 °F 30 in Calm     95% 0 in 0.00 W/m2 unknown
17:04 48.2 °F 46.4 °F 30 in Calm     95% 0 in 0.00 W/m2 unknown
17:09 48.2 °F 46.4 °F 30 in WSW 1.2 mph 3.7 mph 95% 0 in 0.00 W/m2 unknown
17:14 48.2 °F 46.4 °F 30 in WSW 1.9 mph 3.7 mph 95% 0 in 0.00 W/m2 unknown
17:19 48.2 °F 46.4 °F 30 in SW 2.5 mph 3.7 mph 95% 0 in 0.00 W/m2 unknown
17:24 48.2 °F 46.4 °F 30 in WSW 1.9 mph 3.7 mph 95% 0 in 0.00 W/m2 unknown
17:29 48.2 °F 46.4 °F 30 in WSW 1.2 mph 3.1 mph 95% 0 in 0.00 W/m2 unknown
17:34 48.2 °F 46.4 °F 30 in Calm   1.9 mph 95% 0 in 0.00 W/m2 unknown
17:39 48.2 °F 46.4 °F 30 in West 0.6 mph 1.2 mph 95% 0 in 0.00 W/m2 unknown
17:44 48.2 °F 46.4 °F 30 in West 1.2 mph 1.9 mph 95% 0 in 0.00 W/m2 unknown
17:49 48.2 °F 46.4 °F 30 in West 1.2 mph 2.5 mph 95% 0 in 0.00 W/m2 unknown
17:54 48.2 °F 46.4 °F 30 in Calm   1.9 mph 95% 0 in 0.00 W/m2 unknown
17:59 48.2 °F 46.4 °F 30 in Calm     95% 0 in 0.00 W/m2 unknown
18:04 48.2 °F 46.4 °F 30 in Calm     95% 0 in 0.00 W/m2 unknown
18:09 48.2 °F 46.4 °F 30 in Calm     95% 0 in 0.00 W/m2 unknown
18:14 48.2 °F 46.4 °F 30 in Calm     95% 0 in 0.00 W/m2 unknown
18:19 48.2 °F 46.4 °F 30 in Calm     95% 0 in 0.00 W/m2 unknown
18:24 48.2 °F 46.4 °F 30 in Calm     95% 0 in 0.00 W/m2 unknown
18:29 48.2 °F 46.4 °F 30 in Calm     95% 0 in 0.00 W/m2 unknown
18:34 48.2 °F 46.4 °F 30 in Calm     95% 0 in 0.00 W/m2 unknown
18:39 48.2 °F 46.4 °F 30 in Calm     95% 0 in 0.00 W/m2 unknown
18:44 48.2 °F 46.4 °F 30 in WSW 1.9 mph 2.5 mph 95% 0 in 0.00 W/m2 unknown
18:49 48.2 °F 46.4 °F 30 in WSW 1.2 mph 2.5 mph 95% 0 in 0.00 W/m2 unknown
18:54 48.2 °F 46.4 °F 30 in SW 0.6 mph 2.5 mph 95% 0 in 0.00 W/m2 unknown
18:59 48.2 °F 46.4 °F 30 in Calm   1.9 mph 95% 0 in 0.00 W/m2 unknown
19:04 48.2 °F 46.4 °F 30 in Calm     95% 0 in 0.00 W/m2 unknown
19:09 48.2 °F 46.4 °F 30 in Calm     95% 0 in 0.00 W/m2 unknown
19:14 48.2 °F 46.4 °F 30 in East 1.9 mph 3.7 mph 95% 0 in 0.00 W/m2 unknown
19:19 48.2 °F 46.4 °F 30 in ENE 1.9 mph 3.7 mph 95% 0 in 0.00 W/m2 unknown
19:24 48.2 °F 46.4 °F 30 in NE 3.1 mph 3.7 mph 95% 0 in 0.00 W/m2 unknown
19:29 48.2 °F 46.4 °F 30 in NE 3.1 mph 3.7 mph 95% 0 in 0.00 W/m2 unknown
19:34 48.2 °F 46.4 °F 30 in NE 1.9 mph 3.1 mph 95% 0 in 0.00 W/m2 unknown
19:39 48.2 °F 46.4 °F 30 in ENE 1.9 mph 2.5 mph 95% 0 in 0.00 W/m2 unknown
19:44 48.2 °F 46.4 °F 30 in ENE 1.2 mph 2.5 mph 95% 0 in 0.00 W/m2 unknown
19:49 48.2 °F 46.4 °F 30 in Calm   1.9 mph 95% 0 in 0.00 W/m2 unknown
19:54 48.2 °F 46.4 °F 30 in Calm     95% 0 in 0.00 W/m2 unknown
19:59 48.2 °F 46.4 °F 30 in Calm     95% 0 in 0.00 W/m2 unknown
20:04 48.2 °F 46.4 °F 30 in Calm     95% 0 in 0.00 W/m2 unknown
20:09 48.2 °F 46.4 °F 30 in Calm   1.2 mph 95% 0 in 0.00 W/m2 unknown
20:14 48.2 °F 46.4 °F 30 in Calm   1.2 mph 95% 0 in 0.00 W/m2 unknown
20:19 48.2 °F 46.4 °F 30 in Calm     95% 0 in 0.00 W/m2 unknown
20:24 48.2 °F 46.4 °F 30 in Calm     95% 0 in 0.00 W/m2 unknown
20:29 48.2 °F 46.4 °F 30.1 in Calm     95% 0 in 0.00 W/m2 unknown
20:34 48.2 °F 46.4 °F 30.1 in Calm     95% 0 in 0.00 W/m2 unknown
20:39 48.2 °F 46.4 °F 30.1 in Calm     95% 0 in 0.00 W/m2 unknown
20:44 48.2 °F 46.4 °F 30.1 in Calm     95% 0 in 0.00 W/m2 unknown
20:49 48.2 °F 46.4 °F 30.1 in Calm     95% 0 in 0.00 W/m2 unknown
20:54 48.2 °F 46.4 °F 30.1 in Calm     95% 0 in 0.00 W/m2 unknown
20:59 48.2 °F 46.4 °F 30.1 in Calm     95% 0 in 0.00 W/m2 unknown
21:04 48.2 °F 46.4 °F 30.1 in East 1.9 mph 3.7 mph 95% 0 in 0.00 W/m2 unknown
21:09 48.2 °F 46.4 °F 30.1 in ENE 2.5 mph 3.7 mph 95% 0 in 0.00 W/m2 unknown
21:14 48.2 °F 46.4 °F 30.1 in ENE 2.5 mph 3.7 mph 95% 0 in 0.00 W/m2 unknown
21:19 48.2 °F 46.4 °F 30.1 in ENE 1.9 mph 3.7 mph 95% 0 in 0.00 W/m2 unknown
21:24 48.2 °F 46.4 °F 30.1 in ESE 2.5 mph 3.7 mph 95% 0 in 0.00 W/m2 unknown
21:29 48.2 °F 46.4 °F 30.1 in ESE 2.5 mph 3.7 mph 95% 0 in 0.00 W/m2 unknown
21:34 48.2 °F 46.4 °F 30.1 in ENE 4.3 mph 6.2 mph 95% 0 in 0.00 W/m2 unknown
21:39 48.2 °F 46.4 °F 30.1 in ENE 4.3 mph 6.8 mph 95% 0 in 0.00 W/m2 unknown
21:44 48.2 °F 46.4 °F 30.1 in ENE 3.7 mph 6.8 mph 95% 0 in 0.00 W/m2 unknown
21:49 48.2 °F 46.4 °F 30.1 in ENE 4.3 mph 6.8 mph 95% 0 in 0.00 W/m2 unknown
21:54 48.2 °F 46.4 °F 30.1 in East 4.3 mph 6.8 mph 95% 0 in 0.00 W/m2 unknown
21:59 48.2 °F 46.4 °F 30.1 in East 5.6 mph 8.1 mph 95% 0 in 0.00 W/m2 unknown
22:04 48.2 °F 46.4 °F 30.1 in East 5.6 mph 8.1 mph 96% 0 in 0.00 W/m2 unknown
22:09 48.2 °F 46.4 °F 30.1 in East 5 mph 6.8 mph 96% 0 in 0.00 W/m2 unknown
22:14 48.2 °F 46.4 °F 30.1 in ENE 5.6 mph 8.1 mph 96% 0 in 0.00 W/m2 unknown
22:19 48.2 °F 46.4 °F 30.1 in ENE 5 mph 8.1 mph 96% 0 in 0.00 W/m2 unknown
22:24 48.2 °F 46.4 °F 30.1 in East 6.8 mph 13 mph 96% 0 in 0.00 W/m2 unknown
22:29 48.2 °F 46.4 °F 30.1 in East 9.3 mph 13 mph 96% 0 in 0.00 W/m2 unknown
22:34 48.2 °F 46.4 °F 30.1 in East 8.1 mph 13 mph 96% 0 in 0.00 W/m2 unknown
22:39 48.2 °F 46.4 °F 30.1 in East 8.1 mph 10.6 mph 96% 0 in 0.00 W/m2 unknown
22:44 48.2 °F 46.4 °F 30.1 in East 6.8 mph 10.6 mph 96% 0 in 0.00 W/m2 unknown
22:49 48.2 °F 46.4 °F 30.1 in ENE 6.2 mph 9.9 mph 96% 0 in 0.00 W/m2 unknown
22:54 48.2 °F 46.4 °F 30.1 in East 5 mph 8.1 mph 96% 0 in 0.00 W/m2 unknown
22:59 48.2 °F 46.4 °F 30.1 in East 6.2 mph 10.6 mph 96% 0 in 0.00 W/m2 unknown
23:04 48.2 °F 46.4 °F 30.1 in East 5 mph 9.9 mph 96% 0 in 0.00 W/m2 unknown
23:09 48.2 °F 46.4 °F 30.1 in ENE 5 mph 6.8 mph 96% 0 in 0.00 W/m2 unknown
23:14 48.2 °F 46.4 °F 30.1 in ENE 6.2 mph 9.9 mph 96% 0 in 0.00 W/m2 unknown
23:19 48.2 °F 46.4 °F 30.1 in East 6.2 mph 10.6 mph 96% 0 in 0.00 W/m2 unknown
23:24 48.2 °F 46.4 °F 30.1 in ESE 5.6 mph 9.9 mph 96% 0 in 0.00 W/m2 unknown
23:29 48.2 °F 46.4 °F 30.1 in ESE 6.2 mph 8.1 mph 96% 0 in 0.00 W/m2 unknown
23:34 48.2 °F 46.4 °F 30.1 in East 8.1 mph 10.6 mph 96% 0 in 0.00 W/m2 unknown
23:39 48.2 °F 46.4 °F 30.1 in East 7.5 mph 10.6 mph 96% 0.01 in 0.00 W/m2 unknown
23:44 48.2 °F 46.4 °F 30.1 in East 7.5 mph 10.6 mph 96% 0.01 in 0.00 W/m2 unknown
23:49 48.2 °F 46.4 °F 30.1 in East 6.8 mph 9.9 mph 96% 0.01 in 0.00 W/m2 unknown
23:54 48.2 °F 46.4 °F 30.1 in East 8.1 mph 9.9 mph 96% 0.01 in 0.00 W/m2 unknown
23:59 48.2 °F 46.4 °F 30.1 in East 8.1 mph 10.6 mph 96% 0.01 in 0.00 W/m2 unknown
Stazione Meteorologica MeteoMincio Rivalta s/M (MN)
Con i complimenti di Weather Underground - 4 mb



METEO PILLOLE
Maggior quantità di pioggia caduta in 12 mesi
Cherrapunji (1313 m) - India
tra il 1 agosto 1860 e il 31 luglio 1861 sono caduti 26466.8 mm .
Share

Non seguire questo link o sarai bannato dal sito!